Wetterdaten: Donnerstag, 11.06.2015
Datum Zeit Temp. A. Mod.Schuppen Waschkche Feuchte A. Luftdruck Regen Wind Richtung Richtung Sonnenschein Helligkeit Solar
11.06.2015 00:04 18,2 C 16,2 C 19,1 C 56 % 1022,9 hPa 0,0 l/m 15,8 km/h (3 Bft) NO22.5 50 0 min 0 lux 0 W/m
11.06.2015 00:09 18,2 C 16,2 C 19,1 C 56 % 1022,9 hPa 0,0 l/m 21,6 km/h (4 Bft) NO22.5 45 0 min 0 lux 0 W/m
11.06.2015 00:14 18,2 C 16,1 C 19,1 C 56 % 1022,9 hPa 0,0 l/m 14,8 km/h (3 Bft) NO45 55 0 min 0 lux 0 W/m
11.06.2015 00:19 18,2 C 16,3 C 19,1 C 56 % 1022,9 hPa 0,0 l/m 14,8 km/h (3 Bft) O-NO45 65 0 min 0 lux 0 W/m
11.06.2015 00:24 18,3 C 16,5 C 19,1 C 56 % 1022,9 hPa 0,0 l/m 17,8 km/h (3 Bft) NO45 55 0 min 0 lux 0 W/m
11.06.2015 00:29 18,4 C 16,6 C 19,1 C 56 % 1022,9 hPa 0,0 l/m 21,2 km/h (4 Bft) NO22.5 55 0 min 0 lux 0 W/m
11.06.2015 00:34 18,4 C 16,7 C 19,1 C 56 % 1022,9 hPa 0,0 l/m 17,7 km/h (3 Bft) NO22.5 40 0 min 0 lux 0 W/m
11.06.2015 00:39 18,4 C 16,7 C 19,1 C 56 % 1022,9 hPa 0,0 l/m 17,9 km/h (3 Bft) NO45 40 0 min 0 lux 0 W/m
11.06.2015 00:44 18,3 C 16,7 C 19,1 C 56 % 1022,9 hPa 0,0 l/m 20,6 km/h (4 Bft) NO22.5 35 0 min 0 lux 0 W/m
11.06.2015 00:49 18,2 C 16,6 C 19,1 C 57 % 1022,9 hPa 0,0 l/m 14,5 km/h (3 Bft) NO22.5 50 0 min 0 lux 0 W/m
11.06.2015 00:54 18,1 C 16,5 C 19,1 C 57 % 1022,9 hPa 0,0 l/m 20,8 km/h (4 Bft) NO22.5 35 0 min 0 lux 0 W/m
11.06.2015 00:59 18,0 C 16,4 C 19,1 C 57 % 1022,9 hPa 0,0 l/m 17,6 km/h (3 Bft) NO22.5 50 0 min 0 lux 0 W/m
11.06.2015 01:03 18,0 C 16,4 C 19,1 C 57 % 1022,9 hPa 0,0 l/m 16,8 km/h (3 Bft) NO22.5 45 0 min 0 lux 0 W/m
11.06.2015 01:09 18,0 C 16,5 C 19,0 C 57 % 1022,9 hPa 0,0 l/m 18,0 km/h (3 Bft) NO45 55 0 min 0 lux 0 W/m
11.06.2015 01:14 17,9 C 16,4 C 19,0 C 57 % 1022,9 hPa 0,0 l/m 15,5 km/h (3 Bft) NO45 45 0 min 0 lux 0 W/m
11.06.2015 01:19 17,9 C 16,4 C 19,0 C 57 % 1022,9 hPa 0,0 l/m 23,0 km/h (4 Bft) NO45 35 0 min 0 lux 0 W/m
11.06.2015 01:24 17,8 C 16,3 C 19,0 C 57 % 1022,9 hPa 0,0 l/m 21,5 km/h (4 Bft) NO45 35 0 min 0 lux 0 W/m
11.06.2015 01:29 17,7 C 16,2 C 19,0 C 57 % 1022,9 hPa 0,0 l/m 21,0 km/h (4 Bft) NO45 35 0 min 0 lux 0 W/m
11.06.2015 01:34 17,6 C 15,8 C 19,0 C 57 % 1022,9 hPa 0,0 l/m 22,1 km/h (4 Bft) NO45 40 0 min 0 lux 0 W/m
11.06.2015 01:38 17,6 C 15,7 C 19,0 C 57 % 1022,9 hPa 0,0 l/m 25,6 km/h (4 Bft) NO22.5 45 0 min 0 lux 0 W/m
11.06.2015 01:44 17,4 C 15,6 C 19,0 C 57 % 1022,9 hPa 0,0 l/m 31,8 km/h (5 Bft) NO22.5 45 0 min 0 lux 0 W/m
11.06.2015 01:49 17,2 C 15,5 C 19,0 C 57 % 1022,9 hPa 0,0 l/m 21,8 km/h (4 Bft) NO22.5 45 0 min 0 lux 0 W/m
11.06.2015 01:54 17,2 C 15,3 C 18,9 C 57 % 1022,9 hPa 0,0 l/m 23,3 km/h (4 Bft) NO22.5 35 0 min 0 lux 0 W/m
11.06.2015 01:59 17,0 C 15,1 C 18,9 C 57 % 1022,9 hPa 0,0 l/m 23,2 km/h (4 Bft) NO22.5 45 0 min 0 lux 0 W/m
11.06.2015 02:04 16,8 C 15,1 C 18,9 C 57 % 1022,9 hPa 0,0 l/m 20,9 km/h (4 Bft) NO45 40 0 min 0 lux 0 W/m
11.06.2015 02:08 16,8 C 15,1 C 18,9 C 58 % 1022,9 hPa 0,0 l/m 22,3 km/h (4 Bft) NO45 40 0 min 0 lux 0 W/m
11.06.2015 02:14 16,7 C 14,9 C 18,9 C 58 % 1022,9 hPa 0,0 l/m 20,6 km/h (4 Bft) NO22.5 45 0 min 0 lux 0 W/m
11.06.2015 02:19 16,5 C 14,8 C 18,9 C 58 % 1022,9 hPa 0,0 l/m 19,7 km/h (3 Bft) NO45 45 0 min 0 lux 0 W/m
11.06.2015 02:24 16,5 C 14,7 C 18,9 C 58 % 1022,9 hPa 0,0 l/m 23,8 km/h (4 Bft) NO22.5 45 0 min 0 lux 0 W/m
11.06.2015 02:29 16,4 C 14,6 C 18,9 C 59 % 1022,9 hPa 0,0 l/m 17,1 km/h (3 Bft) N-NO22.5 30 0 min 0 lux 0 W/m
11.06.2015 02:34 16,4 C 14,6 C 18,8 C 59 % 1022,9 hPa 0,0 l/m 24,3 km/h (4 Bft) NO22.5 45 0 min 0 lux 0 W/m
11.06.2015 02:39 16,3 C 14,5 C 18,8 C 59 % 1022,9 hPa 0,0 l/m 21,5 km/h (4 Bft) NO22.5 40 0 min 0 lux 0 W/m
11.06.2015 02:44 16,2 C 14,4 C 18,8 C 60 % 1022,9 hPa 0,0 l/m 15,8 km/h (3 Bft) NO45 45 0 min 0 lux 0 W/m
11.06.2015 02:49 16,2 C 14,3 C 18,8 C 61 % 1022,9 hPa 0,0 l/m 17,0 km/h (3 Bft) NO22.5 50 0 min 0 lux 0 W/m
11.06.2015 02:54 16,1 C 14,3 C 18,8 C 61 % 1022,9 hPa 0,0 l/m 14,6 km/h (3 Bft) NO45 45 0 min 0 lux 0 W/m
11.06.2015 02:59 16,0 C 14,0 C 18,8 C 61 % 1022,9 hPa 0,0 l/m 17,4 km/h (3 Bft) NO22.5 50 0 min 0 lux 0 W/m
11.06.2015 03:04 15,9 C 13,8 C 18,7 C 61 % 1022,9 hPa 0,0 l/m 21,8 km/h (4 Bft) NO22.5 35 0 min 0 lux 0 W/m
11.06.2015 03:09 15,8 C 13,6 C 18,7 C 61 % 1021,9 hPa 0,0 l/m 17,5 km/h (3 Bft) NO22.5 35 0 min 0 lux 0 W/m
11.06.2015 03:13 15,6 C 13,5 C 18,7 C 62 % 1021,9 hPa 0,0 l/m 18,8 km/h (3 Bft) NO22.5 35 0 min 0 lux 0 W/m
11.06.2015 03:19 15,6 C 13,4 C 18,7 C 62 % 1023,0 hPa 0,0 l/m 18,8 km/h (3 Bft) NO22.5 35 0 min 0 lux 0 W/m
11.06.2015 03:24 15,6 C 13,2 C 18,6 C 62 % 1021,9 hPa 0,0 l/m 13,9 km/h (3 Bft) N-NO22.5 30 0 min 0 lux 0 W/m
11.06.2015 03:29 15,4 C 13,2 C 18,7 C 62 % 1021,9 hPa 0,0 l/m 19,1 km/h (3 Bft) NO45 35 0 min 0 lux 0 W/m
11.06.2015 03:34 15,3 C 12,9 C 18,6 C 63 % 1022,0 hPa 0,0 l/m 18,1 km/h (3 Bft) NO22.5 45 0 min 0 lux 0 W/m
11.06.2015 03:39 15,2 C 12,5 C 18,6 C 63 % 1022,0 hPa 0,0 l/m 14,0 km/h (3 Bft) NO45 40 0 min 0 lux 0 W/m
11.06.2015 03:44 15,1 C 12,2 C 18,6 C 63 % 1022,0 hPa 0,0 l/m 17,4 km/h (3 Bft) NO22.5 35 0 min 0 lux 0 W/m
11.06.2015 03:48 15,1 C 12,1 C 18,6 C 63 % 1022,0 hPa 0,0 l/m 14,9 km/h (3 Bft) NO22.5 40 0 min 0 lux 0 W/m
11.06.2015 03:54 15,0 C 12,0 C 18,6 C 64 % 1022,0 hPa 0,0 l/m 17,8 km/h (3 Bft) NO22.5 45 0 min 0 lux 0 W/m
11.06.2015 03:59 15,0 C 11,9 C 18,5 C 64 % 1022,0 hPa 0,0 l/m 18,0 km/h (3 Bft) NO45 35 0 min 0 lux 0 W/m
11.06.2015 04:04 14,8 C 11,8 C 18,5 C 65 % 1022,0 hPa 0,0 l/m 19,1 km/h (3 Bft) NO22.5 35 0 min 0 lux 0 W/m
11.06.2015 04:09 14,8 C 11,8 C 18,5 C 65 % 1022,0 hPa 0,0 l/m 12,9 km/h (3 Bft) NO22.5 35 0 min 0 lux 0 W/m
11.06.2015 04:14 14,7 C 11,5 C 18,5 C 65 % 1022,0 hPa 0,0 l/m 11,2 km/h (2 Bft) NO22.5 40 0 min 0 lux 0 W/m
11.06.2015 04:19 14,5 C 11,5 C 18,5 C 65 % 1022,0 hPa 0,0 l/m 11,3 km/h (2 Bft) O-NO67.5 75 0 min 0 lux 0 W/m
11.06.2015 04:24 14,4 C 11,2 C 18,5 C 65 % 1022,0 hPa 0,0 l/m 11,0 km/h (2 Bft) NO22.5 45 0 min 0 lux 0 W/m
11.06.2015 04:29 14,4 C 11,4 C 18,4 C 66 % 1022,0 hPa 0,0 l/m 14,1 km/h (3 Bft) NO22.5 35 0 min 0 lux 0 W/m
11.06.2015 04:34 14,3 C 11,2 C 18,4 C 66 % 1022,0 hPa 0,0 l/m 13,4 km/h (3 Bft) N-NO45 30 0 min 0 lux 0 W/m
11.06.2015 04:39 14,3 C 11,1 C 18,4 C 66 % 1022,0 hPa 0,0 l/m 12,0 km/h (2 Bft) NO22.5 40 0 min 0 lux 0 W/m
11.06.2015 04:44 14,2 C 11,1 C 18,4 C 67 % 1022,0 hPa 0,0 l/m 13,2 km/h (3 Bft) N-NO22.5 25 0 min 0 lux 0 W/m
11.06.2015 04:49 14,1 C 11,0 C 18,4 C 66 % 1022,0 hPa 0,0 l/m 15,8 km/h (3 Bft) NO45 45 0 min 44 lux 0 W/m
11.06.2015 04:53 14,0 C 11,1 C 18,3 C 67 % 1022,0 hPa 0,0 l/m 16,4 km/h (3 Bft) NO45 35 0 min 78 lux 0 W/m
11.06.2015 04:59 14,0 C 11,0 C 18,3 C 67 % 1022,0 hPa 0,0 l/m 11,8 km/h (2 Bft) NO22.5 40 0 min 134 lux 0 W/m
11.06.2015 05:04 14,0 C 10,8 C 18,3 C 67 % 1022,0 hPa 0,0 l/m 13,5 km/h (3 Bft) N-NO22.5 30 0 min 173 lux 0 W/m
11.06.2015 05:09 13,9 C 10,6 C 18,3 C 67 % 1022,0 hPa 0,0 l/m 6,2 km/h (2 Bft) O22.5 80 0 min 269 lux 0 W/m
11.06.2015 05:14 13,9 C 10,6 C 18,3 C 68 % 1022,0 hPa 0,0 l/m 12,5 km/h (2 Bft) NO22.5 50 0 min 398 lux 0 W/m
11.06.2015 05:18 13,8 C 10,7 C 18,3 C 67 % 1022,0 hPa 0,0 l/m 0,0 km/h (0 Bft) N-NO22.5 25 0 min 565 lux 0 W/m
11.06.2015 05:24 13,7 C 10,8 C 18,2 C 68 % 1022,0 hPa 0,0 l/m 0,0 km/h (0 Bft) N-NO22.5 30 0 min 768 lux 0 W/m
11.06.2015 05:29 13,7 C 10,7 C 18,2 C 68 % 1022,0 hPa 0,0 l/m 0,0 km/h (0 Bft) NO45 40 0 min 881 lux 6 W/m
11.06.2015 05:34 13,5 C 10,5 C 18,2 C 68 % 1022,0 hPa 0,0 l/m 0,0 km/h (0 Bft) N-NO22.5 30 0 min 1,37 klux 9 W/m
11.06.2015 05:39 13,5 C 10,5 C 18,2 C 68 % 1022,0 hPa 0,0 l/m 0,0 km/h (0 Bft) N-NO 30 0 min 1,89 klux 13 W/m
11.06.2015 05:44 13,5 C 10,7 C 18,2 C 69 % 1022,0 hPa 0,0 l/m 0,0 km/h (0 Bft) N-NO 30 0 min 2,42 klux 17 W/m
11.06.2015 05:49 13,6 C 11,1 C 18,2 C 69 % 1022,0 hPa 0,0 l/m 0,0 km/h (0 Bft) NO22.5 45 0 min 2,98 klux 20 W/m
11.06.2015 05:53 13,6 C 11,1 C 18,2 C 69 % 1022,0 hPa 0,0 l/m 0,0 km/h (0 Bft) NO 40 0 min 3,43 klux 23 W/m
11.06.2015 05:59 13,7 C 11,3 C 18,2 C 69 % 1022,0 hPa 0,0 l/m 0,0 km/h (0 Bft) NO 40 0 min 3,75 klux 26 W/m
11.06.2015 06:04 13,7 C 11,6 C 18,2 C 69 % 1022,0 hPa 0,0 l/m 0,0 km/h (0 Bft) NO 40 0 min 4,59 klux 31 W/m
11.06.2015 06:09 13,8 C 12,0 C 18,1 C 69 % 1022,0 hPa 0,0 l/m 0,0 km/h (0 Bft) N-NO 30 0 min 5,26 klux 36 W/m
11.06.2015 06:14 13,9 C 12,2 C 18,1 C 69 % 1022,0 hPa 0,0 l/m 0,0 km/h (0 Bft) N-NO 30 0 min 5,96 klux 41 W/m
11.06.2015 06:18 14,0 C 12,6 C 18,1 C 69 % 1022,0 hPa 0,0 l/m 0,0 km/h (0 Bft) N-NO 30 0 min 6,27 klux 43 W/m
11.06.2015 06:24 14,0 C 12,8 C 18,1 C 69 % 1021,0 hPa 0,0 l/m 0,0 km/h (0 Bft) N-NO 30 0 min 7,23 klux 49 W/m
11.06.2015 06:29 14,0 C 12,9 C 18,1 C 69 % 1021,0 hPa 0,0 l/m 0,0 km/h (0 Bft) N-NO 30 0 min 8,40 klux 57 W/m
11.06.2015 06:34 14,1 C 13,3 C 18,1 C 69 % 1021,0 hPa 0,0 l/m 0,0 km/h (0 Bft) N-NO 30 0 min 9,3 klux 64 W/m
11.06.2015 06:39 14,3 C 13,9 C 18,1 C 68 % 1021,0 hPa 0,0 l/m 0,0 km/h (0 Bft) N-NO 30 0 min 9,6 klux 66 W/m
11.06.2015 06:44 14,4 C 14,0 C 18,1 C 68 % 1021,0 hPa 0,0 l/m 0,0 km/h (0 Bft) N-NO 30 0 min 8,11 klux 55 W/m
11.06.2015 06:49 14,3 C 13,8 C 18,1 C 68 % 1021,0 hPa 0,0 l/m 0,0 km/h (0 Bft) NO 40 0 min 8,15 klux 56 W/m
11.06.2015 06:53 14,4 C 13,8 C 18,1 C 68 % 1021,0 hPa 0,0 l/m 0,0 km/h (0 Bft) NO22.5 35 0 min 9,7 klux 66 W/m
11.06.2015 06:59 14,4 C 13,9 C 18,1 C 67 % 1021,0 hPa 0,0 l/m 0,0 km/h (0 Bft) N-NO 25 0 min 10,4 klux 71 W/m
11.06.2015 07:04 14,3 C 13,9 C 18,1 C 67 % 1021,0 hPa 0,0 l/m 0,0 km/h (0 Bft) N-NO 30 0 min 10,2 klux 70 W/m
11.06.2015 07:09 14,3 C 14,6 C 18,0 C 68 % 1021,0 hPa 0,0 l/m 0,0 km/h (0 Bft) N-NO 20 5 min 26,5 klux 181 W/m
11.06.2015 07:14 14,5 C 15,5 C 18,0 C 68 % 1021,0 hPa 0,0 l/m 0,0 km/h (0 Bft) NO22.5 35 5 min 28,1 klux 192 W/m
11.06.2015 07:18 14,7 C 15,8 C 18,0 C 67 % 1021,0 hPa 0,0 l/m 0,0 km/h (0 Bft) NO22.5 55 4 min 28,5 klux 195 W/m
11.06.2015 07:24 14,8 C 15,8 C 18,1 C 67 % 1021,0 hPa 0,0 l/m 0,0 km/h (0 Bft) NO 55 0 min 18,7 klux 128 W/m
11.06.2015 07:29 14,8 C 15,4 C 18,1 C 67 % 1021,0 hPa 0,0 l/m 0,0 km/h (0 Bft) NO 40 5 min 26,9 klux 184 W/m
11.06.2015 07:34 14,8 C 15,5 C 18,0 C 67 % 1021,0 hPa 0,0 l/m 0,0 km/h (0 Bft) NO 40 0 min 20,0 klux 137 W/m
11.06.2015 07:39 14,8 C 15,1 C 18,0 C 67 % 1021,0 hPa 0,0 l/m 0,0 km/h (0 Bft) NO 40 0 min 12,0 klux 82 W/m
11.06.2015 07:44 14,7 C 14,7 C 18,0 C 68 % 1021,0 hPa 0,0 l/m 0,0 km/h (0 Bft) NO 40 0 min 12,7 klux 87 W/m
11.06.2015 07:49 14,8 C 14,8 C 18,1 C 68 % 1021,0 hPa 0,0 l/m 0,0 km/h (0 Bft) NO 35 0 min 16,8 klux 115 W/m
11.06.2015 07:53 14,9 C 15,7 C 18,0 C 69 % 1021,0 hPa 0,0 l/m 0,0 km/h (0 Bft) NO 35 4 min 39,8 klux 272 W/m
11.06.2015 07:59 15,0 C 17,7 C 18,1 C 68 % 1021,0 hPa 0,0 l/m 0,0 km/h (0 Bft) NO 35 6 min 35,1 klux 240 W/m
11.06.2015 08:04 15,0 C 18,9 C 18,0 C 69 % 1021,0 hPa 0,0 l/m 0,0 km/h (0 Bft) N-NO 30 5 min 33,7 klux 231 W/m
11.06.2015 08:09 15,2 C 19,2 C 18,0 C 68 % 1020,9 hPa 0,0 l/m 0,0 km/h (0 Bft) N-NO 25 0 min 21,1 klux 144 W/m
11.06.2015 08:14 15,3 C 19,6 C 18,1 C 69 % 1020,9 hPa 0,0 l/m 0,0 km/h (0 Bft) N-NO 20 5 min 45,2 klux 309 W/m
11.06.2015 08:18 15,8 C 21,8 C 18,1 C 68 % 1020,9 hPa 0,0 l/m 0,0 km/h (0 Bft) N-NO 20 4 min 53,9 klux 369 W/m
11.06.2015 08:24 16,2 C 22,6 C 18,1 C 66 % 1020,9 hPa 0,0 l/m 1,9 km/h (1 Bft) NO22.5 40 6 min 49,8 klux 341 W/m
11.06.2015 08:29 17,1 C 25,2 C 18,1 C 64 % 1020,9 hPa 0,0 l/m 13,4 km/h (3 Bft) O-NO22.5 60 5 min 50,4 klux 345 W/m
11.06.2015 08:34 17,6 C 26,2 C 18,1 C 61 % 1020,9 hPa 0,0 l/m 4,0 km/h (1 Bft) O 80 5 min 51,4 klux 352 W/m
11.06.2015 08:39 18,2 C 27,6 C 18,1 C 59 % 1020,9 hPa 0,0 l/m 1,0 km/h (0 Bft) O-NO 75 5 min 52,7 klux 360 W/m
11.06.2015 08:44 18,0 C 27,5 C 18,2 C 58 % 1020,9 hPa 0,0 l/m 16,0 km/h (3 Bft) NO22.5 50 5 min 53,0 klux 363 W/m
11.06.2015 08:49 18,3 C 29,4 C 18,1 C 60 % 1020,9 hPa 0,0 l/m 10,9 km/h (2 Bft) NO45 40 5 min 54,9 klux 376 W/m
11.06.2015 08:53 18,7 C 29,1 C 18,2 C 58 % 1020,9 hPa 0,0 l/m 9,3 km/h (2 Bft) NO67.5 50 4 min 56,2 klux 384 W/m
11.06.2015 08:59 19,0 C 29,7 C 18,2 C 57 % 1020,9 hPa 0,0 l/m 14,3 km/h (3 Bft) N-NO22.5 30 6 min 58,0 klux 397 W/m
11.06.2015 09:04 19,2 C 31,3 C 18,2 C 56 % 1020,9 hPa 0,0 l/m 10,6 km/h (2 Bft) NO45 45 5 min 59,7 klux 408 W/m
11.06.2015 09:09 19,4 C 31,8 C 18,3 C 55 % 1020,9 hPa 0,0 l/m 14,8 km/h (3 Bft) NO45 55 5 min 60,3 klux 412 W/m
11.06.2015 09:14 19,3 C 31,7 C 18,3 C 55 % 1020,9 hPa 0,0 l/m 11,0 km/h (2 Bft) N-NO22.5 30 5 min 61,8 klux 423 W/m
11.06.2015 09:18 19,3 C 32,6 C 18,3 C 56 % 1020,9 hPa 0,0 l/m 8,8 km/h (2 Bft) NO22.5 35 4 min 64,0 klux 438 W/m
11.06.2015 09:24 19,8 C 33,9 C 18,3 C 53 % 1020,9 hPa 0,0 l/m 18,7 km/h (3 Bft) O-NO45 60 6 min 64,9 klux 444 W/m
11.06.2015 09:29 19,9 C 34,8 C 18,4 C 54 % 1020,9 hPa 0,0 l/m 13,8 km/h (3 Bft) O22.5 80 5 min 66,0 klux 451 W/m
11.06.2015 09:34 20,0 C 35,0 C 18,4 C 53 % 1020,9 hPa 0,0 l/m 17,1 km/h (3 Bft) O45 80 5 min 67,2 klux 460 W/m
11.06.2015 09:39 20,4 C 35,6 C 18,4 C 53 % 1020,9 hPa 0,0 l/m 13,5 km/h (3 Bft) NO45 45 5 min 69,0 klux 472 W/m
11.06.2015 09:44 20,6 C 36,8 C 18,4 C 52 % 1020,9 hPa 0,0 l/m 13,0 km/h (3 Bft) O22.5 95 5 min 69,9 klux 478 W/m
11.06.2015 09:49 20,6 C 37,5 C 18,5 C 52 % 1020,9 hPa 0,0 l/m 14,4 km/h (3 Bft) O-NO67.5 75 5 min 71,1 klux 486 W/m
11.06.2015 09:53 21,1 C 38,5 C 18,5 C 51 % 1020,8 hPa 0,0 l/m 8,3 km/h (2 Bft) O-NO 75 4 min 72,6 klux 497 W/m
11.06.2015 09:59 21,2 C 38,9 C 18,5 C 50 % 1020,8 hPa 0,0 l/m 9,2 km/h (2 Bft) O-NO 65 6 min 73,9 klux 505 W/m
11.06.2015 10:04 21,4 C 39,7 C 18,6 C 49 % 1020,8 hPa 0,0 l/m 7,6 km/h (2 Bft) O-NO22.5 75 5 min 75,5 klux 516 W/m
11.06.2015 10:09 21,6 C 40,7 C 18,6 C 50 % 1019,8 hPa 0,0 l/m 15,0 km/h (3 Bft) O-NO22.5 65 5 min 76,0 klux 520 W/m
11.06.2015 10:14 21,9 C 40,9 C 18,7 C 48 % 1019,8 hPa 0,0 l/m 13,6 km/h (3 Bft) O22.5 80 5 min 77,3 klux 529 W/m
11.06.2015 10:18 22,0 C 42,3 C 18,8 C 49 % 1019,8 hPa 0,0 l/m 1,5 km/h (1 Bft) S-SO22.5 150 4 min 78,4 klux 536 W/m
11.06.2015 10:24 22,0 C 42,6 C 18,8 C 48 % 1019,8 hPa 0,0 l/m 1,5 km/h (1 Bft) S-SO22.5 150 6 min 79,5 klux 544 W/m
11.06.2015 10:29 22,4 C 42,8 C 18,9 C 45 % 1019,8 hPa 0,0 l/m 20,3 km/h (4 Bft) O-NO22.5 70 5 min 80,2 klux 549 W/m
11.06.2015 10:34 22,3 C 42,9 C 18,9 C 45 % 1019,8 hPa 0,0 l/m 18,0 km/h (3 Bft) O67.5 100 5 min 81,6 klux 558 W/m
11.06.2015 10:39 22,4 C 43,1 C 19,0 C 45 % 1019,8 hPa 0,0 l/m 16,3 km/h (3 Bft) O-SO67.5 105 5 min 83,2 klux 569 W/m
11.06.2015 10:44 22,5 C 43,6 C 19,0 C 44 % 1019,8 hPa 0,0 l/m 17,0 km/h (3 Bft) O45 85 5 min 83,6 klux 572 W/m
11.06.2015 10:49 22,8 C 43,7 C 19,0 C 44 % 1019,8 hPa 0,0 l/m 19,2 km/h (3 Bft) O-SO45 110 5 min 85,0 klux 581 W/m
11.06.2015 10:54 23,0 C 44,3 C 19,1 C 42 % 1019,8 hPa 0,0 l/m 14,5 km/h (3 Bft) O67.5 90 5 min 85,6 klux 586 W/m
11.06.2015 10:59 23,0 C 45,0 C 19,1 C 43 % 1019,8 hPa 0,0 l/m 21,6 km/h (4 Bft) O-SO67.5 105 5 min 86,4 klux 591 W/m
11.06.2015 11:04 23,3 C 45,2 C 19,1 C 43 % 1019,8 hPa 0,0 l/m 20,8 km/h (4 Bft) O-SO67.5 110 5 min 87,6 klux 599 W/m
11.06.2015 11:09 23,6 C 44,9 C 19,1 C 40 % 1019,8 hPa 0,0 l/m 20,3 km/h (4 Bft) O67.5 80 5 min 88,4 klux 605 W/m
11.06.2015 11:14 23,6 C 45,2 C 19,2 C 38 % 1019,8 hPa 0,0 l/m 25,5 km/h (4 Bft) O45 85 5 min 89,2 klux 610 W/m
11.06.2015 11:18 23,6 C 46,1 C 19,2 C 38 % 1019,8 hPa 0,0 l/m 18,3 km/h (3 Bft) O45 80 4 min 90,2 klux 617 W/m
11.06.2015 11:24 23,7 C 47,2 C 19,2 C 39 % 1019,8 hPa 0,0 l/m 15,8 km/h (3 Bft) O-SO45 105 6 min 91,4 klux 625 W/m
11.06.2015 11:29 23,8 C 46,9 C 19,2 C 35 % 1019,8 hPa 0,0 l/m 20,3 km/h (4 Bft) O67.5 100 5 min 91,1 klux 623 W/m
11.06.2015 11:34 24,0 C 47,7 C 19,2 C 35 % 1019,8 hPa 0,0 l/m 17,2 km/h (3 Bft) O67.5 100 5 min 92,3 klux 631 W/m
11.06.2015 11:39 24,0 C 48,0 C 19,3 C 35 % 1019,8 hPa 0,0 l/m 19,0 km/h (3 Bft) O67.5 80 5 min 95,2 klux 651 W/m
11.06.2015 11:44 24,1 C 48,0 C 19,3 C 34 % 1019,8 hPa 0,0 l/m 18,3 km/h (3 Bft) O22.5 85 5 min 95,0 klux 650 W/m
11.06.2015 11:48 24,2 C 48,3 C 19,4 C 34 % 1019,8 hPa 0,0 l/m 21,3 km/h (4 Bft) O67.5 95 4 min 96,7 klux 661 W/m
11.06.2015 11:54 24,3 C 47,9 C 19,4 C 33 % 1019,8 hPa 0,0 l/m 18,8 km/h (3 Bft) O67.5 80 6 min 94,6 klux 647 W/m
11.06.2015 11:59 24,2 C 49,4 C 19,4 C 34 % 1019,8 hPa 0,0 l/m 20,1 km/h (4 Bft) O22.5 85 5 min 96,2 klux 658 W/m
11.06.2015 12:04 24,4 C 49,0 C 19,4 C 34 % 1019,8 hPa 0,0 l/m 14,1 km/h (3 Bft) O45 80 5 min 97,2 klux 665 W/m
11.06.2015 12:09 24,8 C 50,7 C 19,5 C 36 % 1018,8 hPa 0,0 l/m 14,6 km/h (3 Bft) O-NO67.5 75 5 min 97,1 klux 664 W/m
11.06.2015 12:13 25,0 C 49,9 C 19,5 C 33 % 1018,8 hPa 0,0 l/m 18,0 km/h (3 Bft) O-NO45 60 4 min 97,5 klux 667 W/m
11.06.2015 12:19 25,0 C 49,0 C 19,6 C 33 % 1018,8 hPa 0,0 l/m 20,1 km/h (4 Bft) NO67.5 50 6 min 97,2 klux 665 W/m
11.06.2015 12:24 24,8 C 49,2 C 19,7 C 35 % 1018,8 hPa 0,0 l/m 21,0 km/h (4 Bft) O-NO67.5 60 5 min 98,1 klux 671 W/m
11.06.2015 12:29 25,0 C 50,9 C 19,7 C 34 % 1018,8 hPa 0,0 l/m 15,6 km/h (3 Bft) O67.5 100 5 min 100 klux 681 W/m
11.06.2015 12:34 24,9 C 50,8 C 19,7 C 34 % 1018,8 hPa 0,0 l/m 2,9 km/h (1 Bft) S-SO45 150 5 min 100 klux 683 W/m
11.06.2015 12:39 25,2 C 51,8 C 19,8 C 34 % 1018,8 hPa 0,0 l/m 17,7 km/h (3 Bft) O67.5 80 5 min 100 klux 684 W/m
11.06.2015 12:44 25,2 C 51,9 C 19,9 C 35 % 1018,8 hPa 0,0 l/m 22,8 km/h (4 Bft) O67.5 80 5 min 101 klux 691 W/m
11.06.2015 12:49 25,5 C 52,3 C 19,9 C 34 % 1018,8 hPa 0,0 l/m 8,8 km/h (2 Bft) O-SO22.5 110 5 min 101 klux 691 W/m
11.06.2015 12:54 25,6 C 51,3 C 20,0 C 34 % 1018,8 hPa 0,0 l/m 16,8 km/h (3 Bft) O45 95 5 min 100 klux 683 W/m
11.06.2015 12:59 25,6 C 52,2 C 20,1 C 33 % 1018,8 hPa 0,0 l/m 1,8 km/h (1 Bft) O22.5 90 5 min 99 klux 678 W/m
11.06.2015 13:04 25,4 C 52,1 C 20,1 C 34 % 1018,8 hPa 0,0 l/m 26,7 km/h (4 Bft) O67.5 95 5 min 101 klux 691 W/m
11.06.2015 13:09 25,3 C 51,8 C 20,1 C 34 % 1018,8 hPa 0,0 l/m 26,5 km/h (4 Bft) O45 95 5 min 103 klux 705 W/m
11.06.2015 13:14 25,5 C 52,2 C 20,2 C 34 % 1018,8 hPa 0,0 l/m 20,3 km/h (4 Bft) O-SO45 115 5 min 103 klux 705 W/m
11.06.2015 13:19 25,6 C 52,9 C 20,2 C 34 % 1018,8 hPa 0,0 l/m 19,6 km/h (3 Bft) O45 100 5 min 104 klux 711 W/m
11.06.2015 13:24 25,9 C 51,8 C 20,2 C 34 % 1018,8 hPa 0,0 l/m 28,3 km/h (5 Bft) NO45 50 5 min 103 klux 705 W/m
11.06.2015 13:29 25,9 C 51,7 C 20,3 C 34 % 1017,8 hPa 0,0 l/m 15,8 km/h (3 Bft) O67.5 95 5 min 105 klux 718 W/m
11.06.2015 13:34 25,8 C 51,7 C 20,5 C 33 % 1017,8 hPa 0,0 l/m 10,8 km/h (2 Bft) O-SO67.5 105 5 min 111 klux 759 W/m
11.06.2015 13:39 25,8 C 51,7 C 20,5 C 32 % 1017,8 hPa 0,0 l/m 17,5 km/h (3 Bft) N-NO45 25 5 min 110 klux 752 W/m
11.06.2015 13:43 26,1 C 53,2 C 20,6 C 33 % 1017,8 hPa 0,0 l/m 17,6 km/h (3 Bft) O-SO45 120 4 min 109 klux 746 W/m
11.06.2015 13:49 26,2 C 54,6 C 20,7 C 33 % 1017,8 hPa 0,0 l/m 12,7 km/h (3 Bft) SO67.5 140 6 min 106 klux 725 W/m
11.06.2015 13:54 26,2 C 54,6 C 20,8 C 33 % 1017,8 hPa 0,0 l/m 14,4 km/h (3 Bft) SO45 130 5 min 105 klux 718 W/m
11.06.2015 13:59 26,2 C 54,5 C 20,8 C 32 % 1017,8 hPa 0,0 l/m 13,0 km/h (3 Bft) SO67.5 130 5 min 104 klux 711 W/m
11.06.2015 14:04 26,3 C 53,1 C 21,0 C 34 % 1017,7 hPa 0,0 l/m 10,1 km/h (2 Bft) N45 355 5 min 103 klux 705 W/m
11.06.2015 14:08 26,5 C 53,9 C 21,0 C 34 % 1017,7 hPa 0,0 l/m 17,1 km/h (3 Bft) NO45 45 4 min 103 klux 705 W/m
11.06.2015 14:14 26,5 C 53,5 C 21,0 C 34 % 1017,7 hPa 0,0 l/m 22,1 km/h (4 Bft) O45 90 6 min 107 klux 732 W/m
11.06.2015 14:19 26,6 C 53,2 C 21,2 C 32 % 1017,7 hPa 0,0 l/m 24,1 km/h (4 Bft) O-NO67.5 70 5 min 104 klux 711 W/m
11.06.2015 14:24 26,5 C 54,2 C 21,3 C 33 % 1017,7 hPa 0,0 l/m 13,8 km/h (3 Bft) SO67.5 140 5 min 105 klux 718 W/m
11.06.2015 14:29 26,5 C 54,0 C 21,4 C 34 % 1017,7 hPa 0,0 l/m 12,8 km/h (3 Bft) O-NO45 75 5 min 104 klux 711 W/m
11.06.2015 14:34 26,6 C 54,8 C 21,5 C 34 % 1017,7 hPa 0,0 l/m 24,0 km/h (4 Bft) SO67.5 125 5 min 103 klux 705 W/m
11.06.2015 14:38 27,2 C 54,5 C 21,6 C 33 % 1017,7 hPa 0,0 l/m 17,1 km/h (3 Bft) O-NO67.5 70 4 min 104 klux 711 W/m
11.06.2015 14:44 27,2 C 54,4 C 21,6 C 33 % 1017,7 hPa 0,0 l/m 12,5 km/h (2 Bft) O-NO22.5 75 6 min 103 klux 705 W/m
11.06.2015 14:49 26,7 C 51,2 C 21,7 C 32 % 1016,7 hPa 0,0 l/m 12,0 km/h (2 Bft) N-NO67.5 25 5 min 67,4 klux 461 W/m
11.06.2015 14:54 27,0 C 51,2 C 21,7 C 33 % 1016,7 hPa 0,0 l/m 16,6 km/h (3 Bft) NO67.5 45 5 min 104 klux 711 W/m
11.06.2015 14:59 27,2 C 53,1 C 21,8 C 33 % 1016,7 hPa 0,0 l/m 13,8 km/h (3 Bft) O-NO45 70 5 min 104 klux 711 W/m
11.06.2015 15:04 27,2 C 53,5 C 21,9 C 33 % 1016,7 hPa 0,0 l/m 17,1 km/h (3 Bft) O67.5 100 5 min 104 klux 711 W/m
11.06.2015 15:09 26,9 C 53,6 C 21,8 C 32 % 1016,7 hPa 0,0 l/m 14,9 km/h (3 Bft) O67.5 85 5 min 78,3 klux 536 W/m
11.06.2015 15:14 26,4 C 47,0 C 21,9 C 33 % 1016,7 hPa 0,0 l/m 30,1 km/h (5 Bft) O45 80 5 min 99 klux 679 W/m
11.06.2015 15:19 26,4 C 48,2 C 21,9 C 33 % 1016,7 hPa 0,0 l/m 18,1 km/h (3 Bft) SO67.5 130 5 min 94,7 klux 648 W/m
11.06.2015 15:24 26,6 C 48,2 C 21,9 C 33 % 1016,7 hPa 0,0 l/m 14,8 km/h (3 Bft) O-SO67.5 105 5 min 97,5 klux 667 W/m
11.06.2015 15:29 26,7 C 50,9 C 22,0 C 33 % 1016,7 hPa 0,0 l/m 14,9 km/h (3 Bft) O-SO67.5 110 5 min 94,7 klux 648 W/m
11.06.2015 15:34 26,6 C 51,0 C 22,0 C 33 % 1016,7 hPa 0,0 l/m 16,3 km/h (3 Bft) O45 100 5 min 97,6 klux 668 W/m
11.06.2015 15:38 26,6 C 51,4 C 22,1 C 33 % 1016,7 hPa 0,0 l/m 20,3 km/h (4 Bft) SO67.5 125 4 min 95,6 klux 654 W/m
11.06.2015 15:44 26,7 C 50,0 C 22,1 C 33 % 1016,7 hPa 0,0 l/m 18,7 km/h (3 Bft) O-NO45 75 6 min 93,5 klux 640 W/m
11.06.2015 15:49 26,8 C 45,2 C 22,2 C 32 % 1016,7 hPa 0,0 l/m 5,7 km/h (2 Bft) O67.5 100 5 min 85,7 klux 586 W/m
11.06.2015 15:54 26,8 C 45,5 C 22,2 C 33 % 1016,7 hPa 0,0 l/m 26,3 km/h (4 Bft) O67.5 95 5 min 90,4 klux 618 W/m
11.06.2015 15:59 26,7 C 46,6 C 22,2 C 32 % 1016,7 hPa 0,0 l/m 19,6 km/h (3 Bft) O67.5 95 5 min 89,5 klux 612 W/m
11.06.2015 16:03 27,1 C 47,6 C 22,2 C 32 % 1016,7 hPa 0,0 l/m 20,0 km/h (4 Bft) O-NO45 75 4 min 89,5 klux 612 W/m
11.06.2015 16:09 26,9 C 48,2 C 22,2 C 33 % 1016,7 hPa 0,0 l/m 22,5 km/h (4 Bft) O-SO67.5 105 6 min 92,0 klux 629 W/m
11.06.2015 16:14 27,2 C 48,3 C 22,2 C 33 % 1016,7 hPa 0,0 l/m 22,5 km/h (4 Bft) O-SO67.5 105 5 min 91,6 klux 627 W/m
11.06.2015 16:19 27,0 C 47,2 C 22,2 C 33 % 1015,7 hPa 0,0 l/m 21,1 km/h (4 Bft) O-SO67.5 105 5 min 88,2 klux 603 W/m
11.06.2015 16:24 27,1 C 48,3 C 22,3 C 33 % 1015,7 hPa 0,0 l/m 22,1 km/h (4 Bft) O-SO67.5 110 5 min 85,8 klux 587 W/m
11.06.2015 16:29 27,3 C 48,1 C 22,4 C 33 % 1015,7 hPa 0,0 l/m 11,5 km/h (2 Bft) O45 95 5 min 85,8 klux 587 W/m
11.06.2015 16:34 27,4 C 48,4 C 22,5 C 33 % 1015,7 hPa 0,0 l/m 16,5 km/h (3 Bft) SO45 135 5 min 84,6 klux 579 W/m
11.06.2015 16:39 27,5 C 48,0 C 22,5 C 32 % 1015,7 hPa 0,0 l/m 18,6 km/h (3 Bft) SO67.5 125 5 min 85,2 klux 583 W/m
11.06.2015 16:44 27,2 C 48,0 C 22,6 C 32 % 1015,7 hPa 0,0 l/m 20,7 km/h (4 Bft) O45 80 5 min 82,0 klux 561 W/m
11.06.2015 16:49 26,9 C 42,8 C 22,6 C 33 % 1015,7 hPa 0,0 l/m 12,8 km/h (3 Bft) NO22.5 50 5 min 80,4 klux 550 W/m
11.06.2015 16:54 27,0 C 44,2 C 22,7 C 33 % 1015,7 hPa 0,0 l/m 15,2 km/h (3 Bft) SO45 130 5 min 78,1 klux 534 W/m
11.06.2015 16:59 27,2 C 45,2 C 22,7 C 32 % 1015,7 hPa 0,0 l/m 17,5 km/h (3 Bft) O45 85 5 min 76,2 klux 521 W/m
11.06.2015 17:04 27,1 C 45,6 C 22,7 C 32 % 1015,7 hPa 0,0 l/m 10,3 km/h (2 Bft) O22.5 100 5 min 74,9 klux 512 W/m
11.06.2015 17:09 26,9 C 44,6 C 22,7 C 33 % 1015,7 hPa 0,0 l/m 14,4 km/h (3 Bft) O67.5 85 5 min 80,3 klux 549 W/m
11.06.2015 17:14 27,3 C 45,1 C 22,7 C 34 % 1015,7 hPa 0,0 l/m 16,9 km/h (3 Bft) O-NO45 70 5 min 75,4 klux 516 W/m
11.06.2015 17:19 26,8 C 43,1 C 22,7 C 33 % 1015,7 hPa 0,0 l/m 15,2 km/h (3 Bft) O-SO45 120 5 min 75,4 klux 516 W/m
11.06.2015 17:24 26,6 C 42,1 C 22,7 C 33 % 1015,7 hPa 0,0 l/m 17,7 km/h (3 Bft) O45 100 5 min 68,6 klux 469 W/m
11.06.2015 17:29 26,4 C 38,4 C 22,7 C 34 % 1015,7 hPa 0,0 l/m 20,0 km/h (4 Bft) O67.5 90 0 min 28,8 klux 197 W/m
11.06.2015 17:34 26,3 C 37,9 C 22,7 C 34 % 1015,7 hPa 0,0 l/m 12,3 km/h (2 Bft) O-NO45 70 5 min 67,2 klux 460 W/m
11.06.2015 17:39 26,7 C 40,2 C 22,8 C 34 % 1015,7 hPa 0,0 l/m 12,1 km/h (2 Bft) NO67.5 50 5 min 65,2 klux 446 W/m
11.06.2015 17:44 26,6 C 40,6 C 22,7 C 33 % 1014,7 hPa 0,0 l/m 19,6 km/h (3 Bft) O45 85 5 min 63,0 klux 431 W/m
11.06.2015 17:49 26,7 C 41,3 C 22,7 C 34 % 1014,7 hPa 0,0 l/m 16,1 km/h (3 Bft) NO 55 5 min 64,1 klux 438 W/m
11.06.2015 17:54 26,6 C 41,1 C 22,8 C 34 % 1014,7 hPa 0,0 l/m 16,0 km/h (3 Bft) O-SO67.5 105 5 min 64,5 klux 441 W/m
11.06.2015 17:58 26,3 C 40,0 C 22,9 C 35 % 1014,7 hPa 0,0 l/m 12,3 km/h (2 Bft) O-NO22.5 70 4 min 53,5 klux 366 W/m
11.06.2015 18:04 26,0 C 37,8 C 22,9 C 35 % 1014,7 hPa 0,0 l/m 17,5 km/h (3 Bft) O45 80 6 min 53,2 klux 364 W/m
11.06.2015 18:09 26,1 C 37,1 C 22,8 C 34 % 1014,7 hPa 0,0 l/m 17,8 km/h (3 Bft) O-NO45 75 5 min 55,2 klux 378 W/m
11.06.2015 18:14 26,1 C 37,0 C 22,8 C 36 % 1014,7 hPa 0,0 l/m 19,7 km/h (3 Bft) O22.5 85 5 min 55,4 klux 379 W/m
11.06.2015 18:19 26,0 C 37,6 C 22,8 C 36 % 1014,7 hPa 0,0 l/m 13,5 km/h (3 Bft) O-SO67.5 120 5 min 55,0 klux 376 W/m
11.06.2015 18:23 25,8 C 37,3 C 22,8 C 35 % 1014,7 hPa 0,0 l/m 21,6 km/h (4 Bft) O45 90 4 min 52,0 klux 356 W/m
11.06.2015 18:29 25,8 C 37,0 C 22,8 C 37 % 1014,7 hPa 0,0 l/m 13,0 km/h (3 Bft) NO22.5 45 6 min 50,5 klux 345 W/m
11.06.2015 18:34 25,8 C 36,6 C 22,8 C 37 % 1014,7 hPa 0,0 l/m 19,1 km/h (3 Bft) O-NO45 75 5 min 49,6 klux 339 W/m
11.06.2015 18:39 25,7 C 36,2 C 22,8 C 38 % 1014,7 hPa 0,0 l/m 20,9 km/h (4 Bft) O67.5 95 5 min 48,0 klux 328 W/m
11.06.2015 18:44 25,5 C 35,9 C 22,8 C 37 % 1014,7 hPa 0,0 l/m 21,6 km/h (4 Bft) O45 95 5 min 46,2 klux 316 W/m
11.06.2015 18:49 25,6 C 34,9 C 22,7 C 38 % 1014,7 hPa 0,0 l/m 18,9 km/h (3 Bft) O45 100 5 min 45,6 klux 312 W/m
11.06.2015 18:54 25,6 C 35,0 C 22,7 C 38 % 1014,7 hPa 0,0 l/m 11,8 km/h (2 Bft) O45 85 5 min 43,4 klux 297 W/m
11.06.2015 18:59 25,3 C 34,6 C 22,7 C 38 % 1014,8 hPa 0,0 l/m 20,1 km/h (4 Bft) O-SO67.5 105 5 min 42,2 klux 289 W/m
11.06.2015 19:04 25,3 C 34,2 C 22,7 C 39 % 1014,8 hPa 0,0 l/m 15,4 km/h (3 Bft) O22.5 95 5 min 40,9 klux 280 W/m
11.06.2015 19:09 25,2 C 33,8 C 22,7 C 40 % 1014,8 hPa 0,0 l/m 15,0 km/h (3 Bft) O45 85 5 min 38,6 klux 264 W/m
11.06.2015 19:14 25,2 C 33,3 C 22,7 C 39 % 1014,8 hPa 0,0 l/m 22,1 km/h (4 Bft) O45 80 5 min 36,6 klux 250 W/m
11.06.2015 19:19 25,2 C 32,5 C 22,6 C 38 % 1014,8 hPa 0,0 l/m 22,3 km/h (4 Bft) O45 90 5 min 33,9 klux 232 W/m
11.06.2015 19:24 25,1 C 31,9 C 22,6 C 39 % 1014,8 hPa 0,0 l/m 25,3 km/h (4 Bft) O22.5 90 5 min 34,2 klux 234 W/m
11.06.2015 19:29 25,0 C 31,3 C 22,6 C 39 % 1013,8 hPa 0,0 l/m 20,6 km/h (4 Bft) O45 90 5 min 32,4 klux 222 W/m
11.06.2015 19:34 25,0 C 30,8 C 22,6 C 39 % 1013,8 hPa 0,0 l/m 24,2 km/h (4 Bft) O67.5 85 5 min 31,1 klux 213 W/m
11.06.2015 19:39 25,0 C 30,4 C 22,6 C 39 % 1013,8 hPa 0,0 l/m 19,1 km/h (3 Bft) O45 100 5 min 29,0 klux 198 W/m
11.06.2015 19:44 24,8 C 29,9 C 22,5 C 39 % 1013,8 hPa 0,0 l/m 22,8 km/h (4 Bft) O45 90 5 min 27,9 klux 191 W/m
11.06.2015 19:49 24,8 C 29,4 C 22,5 C 40 % 1013,8 hPa 0,0 l/m 17,5 km/h (3 Bft) O45 95 5 min 27,0 klux 185 W/m
11.06.2015 19:53 24,6 C 28,6 C 22,6 C 39 % 1014,8 hPa 0,0 l/m 21,6 km/h (4 Bft) O67.5 90 4 min 25,7 klux 176 W/m
11.06.2015 19:59 24,4 C 27,9 C 22,6 C 40 % 1013,8 hPa 0,0 l/m 19,8 km/h (3 Bft) O67.5 90 6 min 24,5 klux 168 W/m
11.06.2015 20:04 24,4 C 27,7 C 22,5 C 40 % 1013,8 hPa 0,0 l/m 23,2 km/h (4 Bft) O45 90 5 min 23,2 klux 159 W/m
11.06.2015 20:09 24,3 C 27,0 C 22,5 C 40 % 1013,8 hPa 0,0 l/m 18,2 km/h (3 Bft) O22.5 80 5 min 21,3 klux 146 W/m
11.06.2015 20:14 24,3 C 26,1 C 22,5 C 40 % 1013,8 hPa 0,0 l/m 16,1 km/h (3 Bft) O22.5 85 5 min 20,1 klux 137 W/m
11.06.2015 20:18 24,2 C 25,7 C 22,5 C 40 % 1013,8 hPa 0,0 l/m 16,5 km/h (3 Bft) O45 90 4 min 19,1 klux 131 W/m
11.06.2015 20:24 24,0 C 25,3 C 22,5 C 41 % 1013,8 hPa 0,0 l/m 19,6 km/h (3 Bft) O22.5 85 6 min 17,1 klux 117 W/m
11.06.2015 20:29 24,0 C 24,9 C 22,4 C 40 % 1013,8 hPa 0,0 l/m 24,3 km/h (4 Bft) O45 90 5 min 16,7 klux 114 W/m
11.06.2015 20:34 23,8 C 24,2 C 22,4 C 40 % 1013,8 hPa 0,0 l/m 22,6 km/h (4 Bft) O45 90 5 min 14,2 klux 97 W/m
11.06.2015 20:39 23,6 C 23,9 C 22,4 C 40 % 1013,8 hPa 0,0 l/m 11,1 km/h (2 Bft) O45 95 5 min 13,6 klux 93 W/m
11.06.2015 20:44 23,4 C 23,4 C 22,4 C 42 % 1013,8 hPa 0,0 l/m 22,8 km/h (4 Bft) O22.5 90 5 min 12,0 klux 82 W/m
11.06.2015 20:49 23,3 C 22,9 C 22,4 C 42 % 1013,8 hPa 0,0 l/m 22,0 km/h (4 Bft) O45 90 5 min 10,7 klux 73 W/m
11.06.2015 20:54 23,2 C 22,9 C 22,3 C 41 % 1013,8 hPa 0,0 l/m 21,8 km/h (4 Bft) O45 95 5 min 10,0 klux 68 W/m
11.06.2015 20:59 23,1 C 22,3 C 22,3 C 42 % 1013,8 hPa 0,0 l/m 20,5 km/h (4 Bft) O45 90 5 min 8,92 klux 61 W/m
11.06.2015 21:04 23,0 C 22,0 C 22,3 C 42 % 1013,8 hPa 0,0 l/m 18,0 km/h (3 Bft) O45 95 5 min 8,00 klux 55 W/m
11.06.2015 21:09 22,9 C 21,9 C 22,3 C 42 % 1013,8 hPa 0,0 l/m 18,8 km/h (3 Bft) O45 95 5 min 6,82 klux 47 W/m
11.06.2015 21:14 22,8 C 21,9 C 22,3 C 43 % 1013,8 hPa 0,0 l/m 20,8 km/h (4 Bft) O45 80 5 min 5,54 klux 38 W/m
11.06.2015 21:19 22,7 C 21,6 C 22,3 C 42 % 1013,8 hPa 0,0 l/m 28,8 km/h (5 Bft) O22.5 80 5 min 4,45 klux 30 W/m
11.06.2015 21:24 22,6 C 20,7 C 22,2 C 42 % 1013,8 hPa 0,0 l/m 22,2 km/h (4 Bft) O22.5 85 5 min 3,26 klux 22 W/m
11.06.2015 21:29 22,6 C 20,4 C 22,2 C 42 % 1013,8 hPa 0,0 l/m 22,3 km/h (4 Bft) O67.5 85 5 min 2,54 klux 17 W/m
11.06.2015 21:34 22,3 C 20,0 C 22,2 C 43 % 1013,8 hPa 0,0 l/m 17,8 km/h (3 Bft) O22.5 85 5 min 1,84 klux 13 W/m
11.06.2015 21:39 22,3 C 19,6 C 22,2 C 43 % 1013,8 hPa 0,0 l/m 25,4 km/h (4 Bft) O45 85 0 min 1,27 klux 9 W/m
11.06.2015 21:44 22,2 C 19,4 C 22,1 C 43 % 1013,8 hPa 0,0 l/m 25,2 km/h (4 Bft) O45 90 0 min 937 lux 0 W/m
11.06.2015 21:48 22,1 C 19,3 C 22,1 C 43 % 1013,8 hPa 0,0 l/m 26,5 km/h (4 Bft) O22.5 90 0 min 796 lux 0 W/m
11.06.2015 21:54 22,1 C 19,1 C 22,1 C 43 % 1013,8 hPa 0,0 l/m 24,1 km/h (4 Bft) O45 85 0 min 554 lux 0 W/m
11.06.2015 21:59 21,9 C 18,7 C 22,1 C 44 % 1013,8 hPa 0,0 l/m 24,1 km/h (4 Bft) O45 85 0 min 363 lux 0 W/m
11.06.2015 22:04 21,8 C 18,6 C 22,0 C 44 % 1013,8 hPa 0,0 l/m 17,7 km/h (3 Bft) O67.5 100 0 min 221 lux 0 W/m
11.06.2015 22:09 21,8 C 18,6 C 22,0 C 44 % 1013,8 hPa 0,0 l/m 27,3 km/h (5 Bft) O45 80 0 min 130 lux 0 W/m
11.06.2015 22:13 21,6 C 18,5 C 22,0 C 44 % 1013,8 hPa 0,0 l/m 18,6 km/h (3 Bft) O45 85 0 min 78 lux 0 W/m
11.06.2015 22:19 21,4 C 18,3 C 22,0 C 45 % 1013,8 hPa 0,0 l/m 17,3 km/h (3 Bft) O45 85 0 min 44 lux 0 W/m
11.06.2015 22:24 21,3 C 18,2 C 22,0 C 44 % 1013,8 hPa 0,0 l/m 24,1 km/h (4 Bft) O45 85 0 min 24 lux 0 W/m
11.06.2015 22:29 21,3 C 18,1 C 21,9 C 45 % 1013,8 hPa 0,0 l/m 22,3 km/h (4 Bft) O67.5 80 0 min 13 lux 0 W/m
11.06.2015 22:34 21,3 C 18,1 C 21,9 C 45 % 1013,8 hPa 0,0 l/m 20,5 km/h (4 Bft) O45 80 0 min 13 lux 0 W/m
11.06.2015 22:39 21,2 C 17,9 C 21,9 C 45 % 1013,8 hPa 0,0 l/m 20,7 km/h (4 Bft) O-NO22.5 75 0 min 4 lux 0 W/m
11.06.2015 22:43 21,0 C 17,6 C 21,8 C 45 % 1013,8 hPa 0,0 l/m 26,5 km/h (4 Bft) O-NO45 75 0 min 2 lux 0 W/m
11.06.2015 22:49 20,8 C 17,7 C 21,9 C 46 % 1013,8 hPa 0,0 l/m 21,8 km/h (4 Bft) O45 80 0 min 1 lux 0 W/m
11.06.2015 22:54 20,8 C 17,7 C 21,8 C 46 % 1013,8 hPa 0,0 l/m 24,0 km/h (4 Bft) O45 80 0 min 0 lux 0 W/m
11.06.2015 22:59 20,8 C 17,7 C 21,8 C 46 % 1013,8 hPa 0,0 l/m 25,0 km/h (4 Bft) O45 85 0 min 0 lux 0 W/m
11.06.2015 23:04 20,7 C 17,6 C 21,8 C 47 % 1013,8 hPa 0,0 l/m 22,4 km/h (4 Bft) O45 80 0 min 0 lux 0 W/m
11.06.2015 23:08 20,5 C 17,7 C 21,8 C 47 % 1013,8 hPa 0,0 l/m 18,8 km/h (3 Bft) O45 95 0 min 0 lux 0 W/m
11.06.2015 23:14 20,4 C 17,4 C 21,7 C 48 % 1013,8 hPa 0,0 l/m 18,6 km/h (3 Bft) O67.5 95 0 min 0 lux 0 W/m
11.06.2015 23:19 20,3 C 17,1 C 21,7 C 48 % 1013,8 hPa 0,0 l/m 22,5 km/h (4 Bft) O-NO45 75 0 min 0 lux 0 W/m
11.06.2015 23:24 20,2 C 17,1 C 21,7 C 49 % 1013,8 hPa 0,0 l/m 18,3 km/h (3 Bft) O45 85 0 min 0 lux 0 W/m
11.06.2015 23:29 20,2 C 16,9 C 21,7 C 49 % 1013,8 hPa 0,0 l/m 18,9 km/h (3 Bft) O45 85 0 min 0 lux 0 W/m
11.06.2015 23:34 19,9 C 16,7 C 21,6 C 50 % 1013,8 hPa 0,0 l/m 16,6 km/h (3 Bft) O45 90 0 min 0 lux 0 W/m
11.06.2015 23:38 19,8 C 16,6 C 21,5 C 51 % 1013,8 hPa 0,0 l/m 19,6 km/h (3 Bft) O45 85 0 min 0 lux 0 W/m
11.06.2015 23:44 19,6 C 16,5 C 21,5 C 52 % 1013,8 hPa 0,0 l/m 22,3 km/h (4 Bft) O-NO22.5 75 0 min 0 lux 0 W/m
11.06.2015 23:49 19,5 C 16,1 C 21,5 C 52 % 1013,8 hPa 0,0 l/m 12,5 km/h (2 Bft) O22.5 90 0 min 0 lux 0 W/m
11.06.2015 23:54 19,3 C 16,0 C 21,5 C 53 % 1013,8 hPa 0,0 l/m 16,5 km/h (3 Bft) O45 80 0 min 0 lux 0 W/m
11.06.2015 23:59 19,2 C 15,9 C 21,5 C 53 % 1013,8 hPa 0,0 l/m 11,5 km/h (2 Bft) O45 95 0 min 0 lux 0 W/m
_ Min-Zeit 05:34 05:34 07:09 13:39 19:29 - 05:18 - - - - -
Minimum _ 13,5 C 10,5 C 18,0 C 32 % 1013,8 hPa - 0,0 km/h (0 Bft) - - - - -
_ Max-Zeit 16:39 14:34 17:58 05:44 03:19 00:04 01:44 - - 07:59 13:34 13:34
Maximum _ 27,5 C 54,8 C 22,9 C 69 % 1023,0 hPa 0,0 l/m 31,8 km/h
NO (5 Bft)
- - 6 min 111 klux 759 W/m
Durchschnitt _ 21,0 C 29,3 C 20,2 C 48 % 1018,6 hPa #0,0 l/m 15,3 km/h (3 Bft) O - #13:54 h 40,4 klux 408 W/m